EW9544 Weather Reports


Display with metric or nautical units.
time (UTC)temp
F
wind
direction
speed
MPH
gust
MPH
rain 1hr
in
rain 24hr
in
rain mn
in
humidity
%
barometer
mb
20260510105648 52 359 0.0 2.0 0.00 0.00 0.00 97 1010.5
20260510104649 52 228 0.0 2.0 0.00 0.00 0.00 97 1010.6
20260510104148 52 228 0.0 2.0 0.00 0.00 0.00 97 1010.7
20260510103148 52 233 1.0 2.0 0.00 0.00 0.00 97 1010.5
20260510102649 52 232 0.0 3.0 0.00 0.00 0.00 97 1010.4
20260510102149 52 359 1.0 3.0 0.00 0.00 0.00 97 1010.5
20260510101147 52 219 1.0 3.0 0.00 0.00 0.00 97 1010.5
20260510100646 51 359 1.0 3.0 0.00 0.00 0.00 97 1010.4
20260510100146 51 222 0.0 2.0 0.00 0.00 0.00 97 1010.5
20260510095146 52 220 0.0 1.0 0.00 0.00 0.00 97 1010.8
20260510094647 51 102 0.0 0.0 0.00 0.00 0.00 97 1010.9
20260510094146 51 103 0.0 0.0 0.00 0.00 0.00 97 1010.9
20260510093647 51 103 0.0 0.0 0.00 0.00 0.00 97 1010.8
20260510093147 51 102 0.0 1.0 0.00 0.00 0.00 97 1010.8
20260510092146 51 102 0.0 2.0 0.00 0.00 0.00 97 1010.8
20260510091646 52 103 0.0 2.0 0.00 0.00 0.00 97 1010.9
20260510091146 52 108 0.0 1.0 0.00 0.00 0.00 97 1010.8
20260510090646 52 52 0.0 1.0 0.00 0.00 0.00 97 1011.0
20260510090146 52 61 0.0 1.0 0.00 0.00 0.00 97 1010.9
20260510085644 52 71 0.0 1.0 0.00 0.00 0.00 97 1010.9
20260510085145 52 54 0.0 1.0 0.00 0.00 0.00 97 1010.8
20260510084644 52 77 0.0 1.0 0.00 0.00 0.00 97 1010.8
20260510084146 52 117 0.0 1.0 0.00 0.00 0.00 97 1010.8
20260510083646 51 359 0.0 0.0 0.00 0.00 0.00 97 1010.6
20260510083144 51 125 0.0 0.0 0.00 0.00 0.00 97 1011.0
20260510082645 51 124 0.0 1.0 0.00 0.00 0.00 97 1010.7
20260510082143 51 194 0.0 1.0 0.00 0.00 0.00 97 1010.5
20260510081644 51 241 0.0 1.0 0.00 0.00 0.00 97 1010.1
20260510081144 51 212 0.0 2.0 0.00 0.00 0.00 97 1010.0
20260510080642 51 222 0.0 2.0 0.00 0.00 0.00 97 1009.9
20260510080143 51 222 0.0 2.0 0.00 0.00 0.00 97 1009.9
20260510075641 52 212 1.0 2.0 0.00 0.00 0.00 97 1009.8
20260510075143 52 209 1.0 2.0 0.00 0.00 0.00 97 1009.8
20260510074642 52 359 0.0 2.0 0.00 0.00 0.00 97 1009.9
20260510073642 52 225 0.0 1.0 0.00 0.00 0.00 96 1010.0
20260510073143 52 234 0.0 1.0 0.00 0.00 0.00 96 1010.0
20260510072643 52 216 1.0 2.0 0.00 0.00 0.00 96 1010.0
20260510071641 52 235 0.0 2.0 0.00 0.00 0.00 96 1009.9
20260510070640 52 140 0.0 0.0 0.00 0.00 0.00 97 1009.9
20260510070141 52 136 0.0 0.0 0.00 0.00 0.00 97 1010.0
20260510065641 52 138 0.0 0.0 0.00 0.00 0.00 97 1010.0
20260510064640 52 135 0.0 0.0 0.00 0.00 0.00 96 1009.9
20260510064141 52 135 0.0 0.0 0.00 0.00 0.00 96 1009.8
20260510063640 52 216 0.0 0.0 0.00 0.00 0.00 96 1009.8
20260510063139 52 214 0.0 1.0 0.00 0.00 0.00 96 1009.8
20260510062638 52 224 0.0 1.0 0.00 0.00 0.00 96 1009.7
20260510061638 52 225 0.0 0.0 0.00 0.00 0.00 96 1009.6
20260510061139 52 227 0.0 1.0 0.00 0.00 0.00 96 1009.6
20260510060138 52 231 0.0 2.0 0.00 0.00 0.00 96 1009.7
20260510055638 52 219 0.0 2.0 0.00 0.00 0.00 96 1009.7
20260510055139 52 359 0.0 1.0 0.00 0.00 0.00 96 1009.7
20260510054637 52 221 0.0 2.0 0.00 0.00 0.00 96 1009.6
20260510054138 52 227 0.0 2.0 0.00 0.00 0.00 96 1009.7
20260510053635 52 210 0.0 2.0 0.00 0.00 0.00 96 1009.8
20260510053137 52 222 0.0 2.0 0.00 0.00 0.00 96 1009.8
20260510052636 53 359 0.0 1.0 0.00 0.00 0.00 96 1009.8
20260510052136 53 359 0.0 0.0 0.00 0.00 0.00 96 1009.9
20260510051637 53 182 0.0 0.0 0.00 0.00 0.00 96 1009.9
20260510051135 53 197 0.0 0.0 0.00 0.00 0.00 96 1010.0
20260510050137 53 199 0.0 0.0 0.00 0.00 0.00 96 1010.0
20260510045635 53 196 0.0 0.0 0.00 0.00 0.00 96 1009.9
20260510044634 53 180 0.0 1.0 0.00 0.00 0.00 96 1009.8
20260510044133 53 359 0.0 0.0 0.00 0.00 0.00 96 1009.9
20260510043132 53 179 0.0 0.0 0.00 0.00 0.00 96 1009.9
20260510042632 53 119 0.0 0.0 0.00 0.00 0.00 96 1009.9
20260510042133 53 90 0.0 0.0 0.00 0.00 0.00 96 1009.8
20260510041632 53 87 0.0 0.0 0.00 0.00 0.00 96 1009.8
20260510040632 53 89 0.0 0.0 0.00 0.00 0.00 96 1009.7
20260510040132 53 89 0.0 0.0 0.00 0.00 0.00 96 1009.7
20260510035632 53 89 0.0 0.0 0.00 0.00 0.00 96 1009.5
20260510035132 53 88 0.0 0.0 0.00 0.00 0.00 95 1009.6
20260510034632 53 89 0.0 0.0 0.00 0.00 0.00 95 1009.5
20260510034132 53 88 0.0 0.0 0.00 0.00 0.00 95 1009.5
20260510033131 53 87 0.0 0.0 0.00 0.00 0.00 95 1009.4
20260510032629 53 89 0.0 0.0 0.00 0.00 0.00 95 1009.5
20260510032129 53 88 0.0 0.0 0.00 0.00 0.00 95 1009.6
20260510031628 53 89 0.0 0.0 0.00 0.00 0.00 95 1009.5
20260510031130 53 95 0.0 0.0 0.00 0.00 0.00 95 1009.4
20260510030628 53 123 0.0 0.0 0.00 0.00 0.00 95 1009.5
20260510030128 53 124 0.0 0.0 0.00 0.00 0.00 95 1009.5
20260510025129 53 122 0.0 0.0 0.00 0.00 0.00 95 1009.6
20260510024629 53 125 0.0 0.0 0.00 0.00 0.00 95 1009.6
20260510024127 53 124 0.0 0.0 0.00 0.00 0.00 95 1009.6
20260510023626 53 122 0.0 0.0 0.00 0.00 0.00 95 1009.7
20260510023127 53 122 0.0 0.0 0.00 0.00 0.00 95 1009.7
20260510022626 53 124 0.0 0.0 0.00 0.00 0.00 95 1009.7
20260510022127 53 122 0.0 0.0 0.00 0.00 0.00 95 1009.6
20260510021626 53 124 0.0 0.0 0.00 0.00 0.00 95 1009.6
20260510020626 53 122 0.0 1.0 0.00 0.00 0.00 95 1009.6
20260510020126 53 124 0.0 1.0 0.00 0.00 0.00 95 1009.5
20260510015626 53 111 0.0 1.0 0.00 0.00 0.00 95 1009.6
20260510015127 53 112 0.0 1.0 0.00 0.00 0.00 95 1009.6
20260510013624 53 207 0.0 0.0 0.00 0.00 0.00 95 1009.4
20260510013125 53 206 0.0 0.0 0.00 0.00 0.00 95 1009.4
20260510012624 53 207 0.0 0.0 0.00 0.00 0.00 95 1009.2
20260510012125 54 206 0.0 0.0 0.00 0.00 0.00 95 1009.2
20260510011624 53 207 0.0 0.0 0.00 0.00 0.00 94 1009.1
20260510010624 54 206 0.0 0.0 0.00 0.00 0.00 95 1008.9
20260510010125 54 206 0.0 0.0 0.00 0.00 0.00 94 1009.0
20260510005622 54 205 0.0 0.0 0.00 0.00 0.00 95 1009.1
20260510005123 54 359 0.0 0.0 0.00 0.00 0.00 95 1009.0
20260510004622 54 206 0.0 0.0 0.00 0.00 0.00 94 1009.0
20260510003622 54 206 0.0 0.0 0.00 0.00 0.00 94 1008.9
20260510003122 54 206 0.0 1.0 0.00 0.00 0.00 94 1008.9
20260510002122 54 359 0.0 1.0 0.00 0.00 0.00 95 1008.9
20260510001123 55 211 0.0 0.0 0.00 0.00 0.00 94 1008.9
20260510000620 55 359 0.0 0.0 0.00 0.00 0.00 94 1008.8
20260510000122 55 210 0.0 0.0 0.00 0.00 0.00 94 1008.8
20260509235620 55 210 0.0 1.0 0.00 0.00 0.00 94 1008.9
20260509235120 55 359 0.0 1.0 0.00 0.00 0.00 94 1008.9
20260509234621 55 224 0.0 1.0 0.00 0.00 0.00 94 1008.9
20260509233621 55 153 0.0 0.0 0.00 0.00 0.00 94 1009.0
20260509233121 55 153 0.0 0.0 0.00 0.00 0.00 94 1009.1
20260509232620 55 154 0.0 1.0 0.00 0.00 0.00 94 1009.0
20260509232120 55 153 0.0 2.0 0.00 0.00 0.00 94 1008.9
20260509231618 55 166 0.0 2.0 0.00 0.00 0.00 94 1008.8
20260509231119 55 359 0.0 1.0 0.00 0.00 0.00 94 1008.9
20260509230618 55 241 0.0 1.0 0.00 0.00 0.00 94 1008.8
20260509230118 55 171 0.0 1.0 0.00 0.00 0.00 94 1008.5
20260509225619 55 139 0.0 2.0 0.00 0.00 0.00 94 1008.5
20260509225117 55 359 0.0 3.0 0.00 0.00 0.00 94 1008.4
20260509224119 55 191 0.0 1.0 0.00 0.00 0.00 94 1009.4
20260509222616 56 312 0.0 1.0 0.00 0.00 0.00 94 1009.9
20260509222117 56 359 0.0 2.0 0.00 0.00 0.00 94 1009.3
20260509220616 56 359 0.0 1.0 0.00 0.00 0.00 94 1009.6
20260509220116 56 205 0.0 0.0 0.00 0.00 0.00 94 1010.1
20260509215616 56 203 0.0 1.0 0.00 0.00 0.00 94 1009.5
20260509215117 56 191 0.0 1.0 0.00 0.00 0.00 94 1009.1
20260509214616 56 178 0.0 0.0 0.00 0.00 0.00 94 1009.3
20260509214117 56 359 0.0 0.0 0.00 0.00 0.00 94 1009.6
20260509213614 56 180 0.0 0.0 0.00 0.00 0.00 93 1009.6
20260509213115 56 179 0.0 0.0 0.00 0.00 0.00 93 1009.5
20260509212613 56 181 0.0 0.0 0.00 0.00 0.00 93 1009.5
20260509212114 56 178 0.0 2.0 0.00 0.00 0.00 93 1009.6
20260509211615 56 359 0.0 2.0 0.00 0.00 0.00 93 1009.7
20260509210613 56 239 0.0 0.0 0.00 0.00 0.00 93 1009.8
20260509210115 56 359 0.0 0.0 0.00 0.00 0.00 93 1009.7
20260509205613 56 239 0.0 0.0 0.00 0.00 0.00 93 1009.7
20260509205115 56 241 0.0 0.0 0.00 0.00 0.00 93 1009.8
20260509204613 56 241 0.0 0.0 0.00 0.00 0.00 93 1009.7
20260509204113 56 241 0.0 0.0 0.00 0.00 0.00 93 1009.6
20260509203615 56 241 0.0 0.0 0.00 0.00 0.00 93 1009.7
20260509203114 56 259 0.0 0.0 0.00 0.00 0.00 93 1010.0
20260509202614 56 258 0.0 0.0 0.00 0.00 0.00 93 1010.1
20260509202113 55 253 0.0 0.0 0.00 0.00 0.00 93 1010.1
20260509201115 55 359 0.0 2.0 0.00 0.00 0.00 93 1010.0
20260509200114 55 359 2.0 7.0 0.00 0.00 0.00 92 1009.8
20260509195614 56 359 2.0 7.0 0.00 0.00 0.00 92 1009.7
20260509194614 57 359 0.0 1.0 0.00 0.00 0.00 92 1009.1
20260509194114 57 106 0.0 1.0 0.00 0.00 0.00 92 1008.6
20260509193615 57 315 0.0 1.0 0.00 0.00 0.00 91 1010.2
20260509193115 57 316 0.0 1.0 0.00 0.00 0.00 91 1010.1
20260509192614 57 21 0.0 0.0 0.00 0.00 0.00 91 1010.0
20260509192113 57 21 0.0 1.0 0.00 0.00 0.00 91 1010.0
20260509191614 57 21 0.0 1.0 0.00 0.00 0.00 90 1010.2
20260509191114 57 359 0.0 1.0 0.00 0.00 0.00 90 1010.3
20260509190615 57 251 0.0 1.0 0.00 0.00 0.00 90 1010.2
20260509190113 57 251 0.0 1.0 0.00 0.00 0.00 90 1010.2
20260509185614 57 242 0.0 1.0 0.00 0.00 0.00 90 1010.1
20260509185114 57 239 0.0 0.0 0.00 0.00 0.00 89 1010.0
20260509184614 56 222 0.0 0.0 0.00 0.00 0.00 89 1009.7
20260509184113 56 224 0.0 1.0 0.00 0.00 0.00 88 1010.0
20260509183115 56 222 1.0 5.0 0.00 0.00 0.00 88 1010.0
20260509182615 56 213 1.0 5.0 0.00 0.00 0.00 87 1009.8
20260509182113 56 203 1.0 5.0 0.00 0.00 0.00 87 1009.6
20260509180114 56 210 2.0 5.0 0.00 0.00 0.00 86 1009.5
20260509175613 56 220 1.0 4.0 0.00 0.00 0.00 86 1009.5
20260509175114 56 187 1.0 4.0 0.00 0.00 0.00 85 1009.4
20260509174613 56 196 1.0 3.0 0.00 0.00 0.00 84 1009.5
20260509174113 57 223 0.0 2.0 0.00 0.00 0.00 83 1009.4
20260509173615 58 213 0.0 2.0 0.00 0.00 0.00 82 1009.4
20260509173115 58 218 0.0 1.0 0.00 0.00 0.00 81 1009.4
20260509172612 58 193 0.0 1.0 0.00 0.00 0.00 81 1009.3
20260509172112 59 202 0.0 1.0 0.00 0.00 0.00 80 1009.4
20260509171612 59 166 0.0 1.0 0.00 0.00 0.00 81 1009.3
20260509171112 59 195 0.0 1.0 0.00 0.00 0.00 81 1009.4
20260509170111 59 199 0.0 2.0 0.00 0.00 0.00 81 1009.4
20260509165611 59 160 0.0 2.0 0.00 0.00 0.00 81 1009.5
20260509165111 59 218 0.0 1.0 0.00 0.00 0.00 81 1009.6
20260509164611 58 199 0.0 1.0 0.00 0.00 0.00 80 1009.6
20260509164111 58 195 0.0 1.0 0.00 0.00 0.00 80 1010.0
20260509163612 58 212 0.0 1.0 0.00 0.00 0.00 80 1009.8
20260509162610 59 228 0.0 1.0 0.00 0.00 0.00 80 1010.1
20260509162109 58 211 0.0 1.0 0.00 0.00 0.00 81 1010.1
20260509161609 58 206 0.0 1.0 0.00 0.00 0.00 81 1010.4
20260509161109 58 191 0.0 1.0 0.00 0.00 0.00 82 1010.4
20260509160609 58 197 0.0 1.0 0.00 0.00 0.00 82 1010.5
20260509160110 58 204 0.0 0.0 0.00 0.00 0.00 81 1010.5
20260509155610 58 227 0.0 0.0 0.00 0.00 0.00 82 1010.5
20260509155110 58 206 0.0 0.0 0.00 0.00 0.00 82 1010.6
20260509154610 58 201 0.0 0.0 0.00 0.00 0.00 82 1010.6
20260509154108 58 199 0.0 0.0 0.00 0.00 0.00 82 1010.6
20260509153607 58 197 0.0 0.0 0.00 0.00 0.00 82 1010.6
20260509153107 58 168 0.0 0.0 0.00 0.00 0.00 82 1010.7
20260509152607 58 171 0.0 0.0 0.00 0.00 0.00 83 1010.6
20260509152107 57 166 0.0 0.0 0.00 0.00 0.00 83 1010.6
20260509151607 58 186 0.0 0.0 0.00 0.00 0.00 83 1010.7
20260509151107 57 196 0.0 0.0 0.00 0.00 0.00 84 1010.7
20260509150607 57 158 0.0 0.0 0.00 0.00 0.00 83 1010.7
20260509150106 57 156 0.0 0.0 0.00 0.00 0.00 84 1010.7
20260509145106 57 193 0.0 0.0 0.00 0.00 0.00 85 1010.8
20260509144606 57 211 0.0 0.0 0.00 0.00 0.00 85 1010.9
20260509144105 57 190 0.0 0.0 0.00 0.00 0.00 86 1010.8
20260509143106 56 208 0.0 2.0 0.00 0.00 0.00 87 1010.6
20260509142605 55 106 0.0 2.0 0.00 0.00 0.00 87 1010.5
20260509142106 55 197 0.0 2.0 0.00 0.00 0.00 88 1010.8
20260509141606 55 180 0.0 3.0 0.00 0.00 0.00 89 1010.8
20260509141106 55 177 0.0 3.0 0.00 0.00 0.00 88 1011.0
20260509140607 55 214 0.0 3.0 0.00 0.00 0.00 89 1011.2
20260509140104 55 202 0.0 2.0 0.00 0.00 0.00 89 1010.7
20260509135604 55 137 0.0 2.0 0.00 0.00 0.00 89 1010.5
20260509135103 55 216 0.0 2.0 0.00 0.00 0.00 90 1010.8
20260509134603 54 152 0.0 2.0 0.00 0.00 0.00 90 1010.5
20260509134103 54 199 0.0 1.0 0.00 0.00 0.00 90 1010.9
20260509133604 54 220 0.0 2.0 0.00 0.00 0.00 90 1011.0
20260509132602 53 193 0.0 1.0 0.00 0.00 0.00 91 1011.1
20260509131603 53 169 0.0 2.0 0.00 0.00 0.00 91 1011.0
20260509131100 53 156 0.0 2.0 0.00 0.00 0.00 91 1011.1
20260509130101 53 208 0.0 2.0 0.00 0.00 0.00 91 1011.4
20260509125600 53 184 0.0 2.0 0.00 0.00 0.00 91 1011.2
20260509125101 53 150 0.0 2.0 0.00 0.00 0.00 91 1011.0
20260509124602 53 177 0.0 2.0 0.00 0.00 0.00 91 1011.1
20260509124101 53 179 0.0 1.0 0.00 0.00 0.00 91 1011.2
20260509123601 52 146 0.0 1.0 0.00 0.00 0.00 91 1011.4
20260509123102 52 155 0.0 2.0 0.00 0.00 0.00 91 1011.5
20260509122602 52 179 0.0 2.0 0.00 0.00 0.00 90 1011.5
20260509122059 52 121 0.0 2.0 0.00 0.00 0.00 91 1011.5
20260509121600 52 116 0.0 2.0 0.00 0.00 0.00 90 1011.6
20260509121058 52 162 0.0 1.0 0.00 0.00 0.00 90 1011.7
20260509120558 52 121 0.0 1.0 0.00 0.00 0.00 90 1011.7
20260509120059 52 143 0.0 2.0 0.00 0.00 0.00 90 1011.7
20260509115558 52 147 0.0 2.0 0.00 0.00 0.00 90 1011.7
20260509115059 52 131 0.0 2.0 0.00 0.00 0.00 90 1011.7
20260509114559 52 164 0.0 4.0 0.00 0.00 0.00 90 1011.8
20260509114059 52 160 0.0 4.0 0.00 0.00 0.00 90 1011.4
20260509113559 52 146 0.0 2.0 0.00 0.00 0.00 90 1011.4
20260509113056 52 151 0.0 2.0 0.00 0.00 0.00 90 1011.6
20260509112054 52 143 0.0 2.0 0.00 0.00 0.00 90 1011.6
20260509111556 52 189 0.0 3.0 0.00 0.00 0.00 90 1011.5
20260509110554 52 174 0.0 2.0 0.00 0.00 0.00 90 1011.4
20260509110055 52 154 0.0 1.0 0.00 0.00 0.00 90 1011.5